Terminal Aerodrome Forecast
Issued by NWS Amarillo, TX

Home | Current Version | Previous Version | Text Only | Print | Product List | Glossary On
Versions: 1 2 3 4 5 6 7 8 9 10 11 12 13 14 15 16 17
000
FTUS44 KAMA 300520
TAFGUY
TAF
KGUY 300520Z 3006/3106 19009KT P6SM SCT110 BKN200
     FM301400 19014KT P6SM SCT040 BKN110
      TEMPO 3014/3018 BKN040
     FM301900 18018KT P6SM SCT060 BKN110
     FM310100 17014KT P6SM SCT110 BKN200=

USA.gov is the U.S. government's official web portal to all federal, state and local government web resources and services.